Location: Consuma
(43.7833°N, 11.5833°E)
Time: 20:47:09
(UTC+00:00)

Cosmos 2237 Rocket - Pass Details

Date: 17 February 2020
Orbit: 835 x 849 km, 71.0° (Epoch: 07 April)

Event Time Altitude Azimuth Distance (km) Brightness Sun altitude
Exits shadow 02:21:38 18° 38° (NE) 1,925 4.5 -41.2°
Drops below altitude 10° 02:23:06 10° 33° (NNE) 2,455 5.1 -40.9°
Sets 02:25:35 0° 30° (NNE) 3,393 6.0 -40.5°
